STARLINK-30164 (57500 NORAD) Tracking and Keplerian Element Data

This shows tracking and keplerian element data for the satellite.

Feedback or suggestion? Click here.




ElementValue
Catalog57500
NameSTARLINK-30164
Epoch Orbit2534
Epoch Day13.13494438
Epoch Year2024
RAAN331.1043
Inclination43.004
Eccentricity0.0001075
Argument of Perigee253.6134
Mean Anonmoly106.459
Mean Motion15.02549536
Decay Rate0.00017292
L11 57500U 23113F 24013.13494438 .00017292 00000+0 12915-2 0 9993
L22 57500 43.0040 331.1043 0001075 253.6134 106.4590 15.02549536 25341



Live tracking and technical data element details for STARLINK-30164 (NORAD 57500). STARLINK-30164 can be tracked NOW for your location showing map with azimuth and elevation plus other details from your city location.







IsCatalogInMostPopularTable: catalog: 57500, numindb: 6
Update: records affected: 1



GetName: 57500 STARLINK-30164

Hit Count: updated at: Thu, 22 Feb 2024 01:41:27 GMT